Miscellaneous Local Product
Issued by NWS Hastings, NE

Home | Current Version | Previous Version | Text Only | Print | Product List | Glossary Off
Versions: 1 2 3 4 5 6 7 8 9 10 11 12 13 14 15 16 17 18 19 20 21 22 23 24 25 26 27 28 29 30 31 32 33 34 35 36 37 38 39 40 41 42 43 44 45 46 47 48 49 50

000
AXUS43 KGID 210002
MISGRI

GID CWA HOURLY WEATHER ROUNDUP
NATIONAL WEATHER SERVICE HASTINGS NE
700 PM CDT SAT SEP 20 2014

NOTE: "FAIR" INDICATES FEW OR NO CLOUDS BELOW 12,000 FEET WITH NO
SIGNIFICANT WEATHER AND/OR OBSTRUCTIONS TO VISIBILITY.

...SOUTH CENTRAL NEBRASKA...

CITY           SKY/WX    TMP DP  RH WIND       PRES   REMARKS
GRAND ISLAND   CLEAR     81  51  35 N9        30.01R
HASTINGS       CLEAR     81  53  37 N5        30.01S
KEARNEY        CLEAR     81  52  36 NW9       30.04R
ORD            CLEAR     78  47  33 NW12G20   30.02R
YORK           CLEAR     77  63  61 N3        29.99S
AURORA         CLEAR     79  56  44 N3        30.00R
LEXINGTON      CLEAR     79  52  38 N7        30.05R
HOLDREGE       CLEAR     80  50  35 N3        30.04S
HEBRON         CLEAR     82  50  32 N6        29.97R

...NEBRASKA PANHANDLE...

CITY           SKY/WX    TMP DP  RH WIND       PRES   REMARKS
CHADRON        CLEAR     75  40  28 NE16      30.17R
ALLIANCE       CLEAR     76  39  26 N15G23    30.18R
SCOTTSBLUFF    CLEAR     79  44  28 N12       30.18R
SIDNEY         PTCLDY    80  42  25 N12       30.19S

...WESTERN AND NORTH CENTRAL NEBRASKA...

CITY           SKY/WX    TMP DP  RH WIND       PRES   REMARKS
VALENTINE      CLEAR     75  40  28 N14G24    30.11R
AINSWORTH      CLEAR     73  45  37 N17G28    30.10R
ONEILL         CLEAR     76  49  39 NW18G26   30.04R
BROKEN BOW     CLEAR     80  47  31 N16       30.06R
IMPERIAL       CLEAR     83  48  29 N7        30.12S
NORTH PLATTE   CLEAR     78  50  37 NW10      30.08R
MCCOOK         CLEAR     82  50  32 N8        30.07S

...EASTERN NEBRASKA...

CITY           SKY/WX    TMP DP  RH WIND       PRES   REMARKS
NORFOLK        CLEAR     79  52  38 NW10      29.96R
SO SIOUX CITY  PTCLDY    80  56  43 NW10      29.89S
TEKAMAH        CLEAR     79  59  50 W5        29.91S
COLUMBUS       CLEAR     75  55  50 NW6       29.97S
ALBION         CLEAR     79  50  35 NW7       30.00R
OMAHA EPPLEY   PTCLDY    78  59  51 NW5       29.92S
OFFUTT AFB     CLEAR     77  62  58 NW3       29.93R
MILLARD        CLEAR     80  59  48 CALM      29.93S
LINCOLN        CLEAR     83  57  41 NW5       29.96R
NEBRASKA CITY    N/A     79  50  36 N5        29.95R
BEATRICE       CLEAR     80  58  46 NW7       29.96R
FALLS CITY     CLEAR     79  70  74 W5        29.92S

...NORTHERN KANSAS...

CITY           SKY/WX    TMP DP  RH WIND       PRES   REMARKS
GOODLAND       CLEAR     79  51  37 NE9       30.14R
HILL CITY      CLEAR     85  52  32 NE8       30.03R
NORTON         CLEAR     81  43  26 N7        30.04
SMITH CENTER   CLEAR     82  50  32 N8        30.01R
BELOIT         CLEAR     82  63  51 CALM      29.96R
HAYS           CLEAR     82  64  54 NE12      30.00R
RUSSELL        CLEAR     84  66  54 N12       29.97R
CONCORDIA      CLEAR     83  67  58 N3        29.97R
SALINA         MOCLDY    82  66  58 CALM      29.95R
TOPEKA         MOCLDY    76  73  91 CALM      29.93S



USA.gov is the U.S. government's official web portal to all federal, state and local government web resources and services.